Powrót do katalogu

CZ-6A DEB

AktywnyPO
NORAD 60855·DEBRIS·🇨🇳 China

Wystrzelony Aug 6, 2024 z Taiyuan Satellite Launch Center

Loading…

Następne Przeloty (najbliższe 24 godziny)

TLE

ŚwieżeSource: Space-Track

Epoka: Sep 14, 2026, 07:05 UTC

1 60855U 24140JJ  26257.29562696  .00000512  00000-0  25429-3 0  9995
2 60855  89.0107 266.8490 0070299 273.3173  85.9974 14.14441555107519

Śledź CZ-6A DEB w czasie rzeczywistym z AllMySat

Download on the App Store